SWA702 KLAX-KASE

Flight info

Callsign SWA702
Flight time N/A
Altitude 37000
Route ORCKA5 LAS BAWER ERRDA LOYYD1
Aircraft B737/M-VGDW/C

Departure

Time N/A
Airport Los Angeles International Airport (KLAX)

Arrival

Time 2026-05-04 07:42
Airport Aspen-Pitkin County Airport (Sardy Field) (KASE)
Time Latitude Longitude Altitude Speed Heading
2026-05-04 06:53 37.64724 -112.25571 35205 ft 471 kts 54°
2026-05-04 06:53 37.67900 -112.18336 35225 ft 472 kts 57°
2026-05-04 06:54 37.70890 -112.11021 35238 ft 475 kts 58°
2026-05-04 06:54 37.73885 -112.03680 35233 ft 472 kts 58°
2026-05-04 06:55 37.76891 -111.96400 35235 ft 473 kts 57°
2026-05-04 06:55 37.79929 -111.89099 35224 ft 472 kts 57°
2026-05-04 06:57 37.92092 -111.59919 35210 ft 473 kts 58°
2026-05-04 06:58 37.95121 -111.52617 35216 ft 470 kts 58°
2026-05-04 06:58 37.98150 -111.45303 35207 ft 471 kts 58°
2026-05-04 06:59 38.01186 -111.37951 35206 ft 471 kts 58°
2026-05-04 06:59 38.04197 -111.30639 35210 ft 472 kts 58°
2026-05-04 07:01 38.16251 -111.01196 35201 ft 468 kts 59°
2026-05-04 07:02 38.19240 -110.93854 35200 ft 469 kts 59°
2026-05-04 07:02 38.22222 -110.86513 35225 ft 469 kts 59°
2026-05-04 07:03 38.25172 -110.79233 35193 ft 469 kts 59°
2026-05-04 07:03 38.28142 -110.71890 35188 ft 469 kts 59°
2026-05-04 07:04 38.31128 -110.64490 35194 ft 468 kts 59°
2026-05-04 07:04 38.34077 -110.57165 35188 ft 469 kts 59°
2026-05-04 07:05 38.37026 -110.49815 35178 ft 469 kts 60°
2026-05-04 07:05 38.39973 -110.42454 35185 ft 469 kts 60°
2026-05-04 07:06 38.44369 -110.31445 35181 ft 469 kts 60°
2026-05-04 07:07 38.47308 -110.24063 35170 ft 467 kts 60°
2026-05-04 07:08 38.56332 -109.97595 35183 ft 470 kts 71°
2026-05-04 07:09 38.57277 -109.93635 35185 ft 469 kts 71°
2026-05-04 07:09 38.59143 -109.85729 35177 ft 470 kts 71°
2026-05-04 07:10 38.61036 -109.77776 35183 ft 470 kts 71°
2026-05-04 07:12 38.68708 -109.45994 35186 ft 470 kts 71°
2026-05-04 07:12 38.70610 -109.38088 35181 ft 469 kts 71°
2026-05-04 07:13 38.72518 -109.30137 35178 ft 468 kts 71°
2026-05-04 07:13 38.74436 -109.22111 35185 ft 468 kts 71°
2026-05-04 07:14 38.79167 -109.02208 35187 ft 471 kts 72°
2026-05-04 07:15 38.81056 -108.94211 35181 ft 470 kts 72°
2026-05-04 07:15 38.82919 -108.86298 35182 ft 470 kts 71°
2026-05-04 07:16 38.84788 -108.78334 35187 ft 468 kts 71°
2026-05-04 07:16 38.86655 -108.70354 35194 ft 471 kts 72°
2026-05-04 07:17 38.88504 -108.62418 35197 ft 470 kts 72°
2026-05-04 07:17 38.90354 -108.54456 35209 ft 470 kts 72°
2026-05-04 07:18 38.92215 -108.46418 35217 ft 471 kts 72°
2026-05-04 07:18 38.94031 -108.38534 35221 ft 470 kts 71°
2026-05-04 07:19 38.95878 -108.30505 35226 ft 471 kts 72°
2026-05-04 07:19 38.97705 -108.22527 35235 ft 471 kts 72°
2026-05-04 07:20 38.99529 -108.14539 35240 ft 472 kts 72°
2026-05-04 07:20 39.01350 -108.06528 35232 ft 472 kts 72°
2026-05-04 07:22 39.08612 -107.74317 35246 ft 475 kts 72°
2026-05-04 07:23 39.10381 -107.66512 35253 ft 475 kts 71°
2026-05-04 07:23 39.12284 -107.58333 35347 ft 476 kts 71°
2026-05-04 07:24 39.14073 -107.50352 34822 ft 464 kts 72°
2026-05-04 07:24 39.14898 -107.46333 33697 ft 476 kts 76°
2026-05-04 07:24 39.15477 -107.42173 32703 ft 478 kts 82°
2026-05-04 07:25 39.15724 -107.37994 32042 ft 471 kts 88°
2026-05-04 07:26 39.08302 -107.11616 24597 ft 453 kts 111°
2026-05-04 07:27 39.07388 -107.07854 23766 ft 438 kts 101°
2026-05-04 07:27 39.06982 -107.04029 22673 ft 430 kts 91°
2026-05-04 07:27 39.07104 -107.00254 21589 ft 423 kts 81°
2026-05-04 07:27 39.07752 -106.96590 20563 ft 415 kts 71°
2026-05-04 07:28 39.08879 -106.93242 19571 ft 407 kts 61°
2026-05-04 07:28 39.10452 -106.90276 18546 ft 402 kts 49°
2026-05-04 07:28 39.12474 -106.87933 17722 ft 392 kts 36°
2026-05-04 07:28 39.14777 -106.86160 17312 ft 373 kts 29°
2026-05-04 07:29 39.16940 -106.84473 17255 ft 349 kts 35°
2026-05-04 07:29 39.18779 -106.82588 17246 ft 331 kts 42°
2026-05-04 07:29 39.20393 -106.80508 17230 ft 314 kts 47°
2026-05-04 07:29 39.21792 -106.78451 17164 ft 300 kts 50°
2026-05-04 07:30 39.23116 -106.76397 16875 ft 295 kts 50°
2026-05-04 07:30 39.24428 -106.74346 16478 ft 295 kts 50°
2026-05-04 07:30 39.25738 -106.72315 16121 ft 292 kts 50°
2026-05-04 07:30 39.27052 -106.70297 15741 ft 291 kts 50°
2026-05-04 07:31 39.28383 -106.68360 15306 ft 290 kts 44°
2026-05-04 07:31 39.29984 -106.66849 14915 ft 285 kts 26°
2026-05-04 07:33 39.40035 -106.71062 14031 ft 222 kts 301°
2026-05-04 07:33 39.40469 -106.72156 14036 ft 228 kts 297°
2026-05-04 07:33 39.41214 -106.74006 14041 ft 233 kts 302°
2026-05-04 07:34 39.42144 -106.75821 14050 ft 247 kts 307°
2026-05-04 07:34 39.43185 -106.77609 14049 ft 249 kts 309°
2026-05-04 07:34 39.44260 -106.79382 14053 ft 250 kts 310°
2026-05-04 07:34 39.45346 -106.81156 14031 ft 251 kts 310°
2026-05-04 07:35 39.46443 -106.82950 14024 ft 252 kts 310°
2026-05-04 07:35 39.47530 -106.84731 14015 ft 252 kts 309°
2026-05-04 07:35 39.48487 -106.86606 14013 ft 253 kts 294°
2026-05-04 07:35 39.48816 -106.88829 14042 ft 254 kts 268°
2026-05-04 07:36 39.48380 -106.91055 13962 ft 250 kts 246°
2026-05-04 07:36 39.47659 -106.93019 13977 ft 230 kts 245°
2026-05-04 07:38 39.40293 -106.95307 12315 ft 157 kts 159°
2026-05-04 07:38 39.39246 -106.94898 12060 ft 154 kts 161°
2026-05-04 07:38 39.38226 -106.94460 11770 ft 155 kts 158°
2026-05-04 07:38 39.37212 -106.93988 11483 ft 154 kts 158°
2026-05-04 07:39 39.36196 -106.93494 11220 ft 153 kts 158°
2026-05-04 07:39 39.35172 -106.93014 10930 ft 153 kts 158°
2026-05-04 07:39 39.34166 -106.92529 10643 ft 153 kts 159°
2026-05-04 07:39 39.33162 -106.92064 10353 ft 152 kts 159°
2026-05-04 07:40 39.32151 -106.91602 10066 ft 152 kts 159°
2026-05-04 07:40 39.31124 -106.91116 9736 ft 156 kts 159°
2026-05-04 07:40 39.30115 -106.90628 9360 ft 157 kts 158°
2026-05-04 07:40 39.29082 -106.90125 8912 ft 158 kts 159°
2026-05-04 07:41 39.28050 -106.89635 8544 ft 154 kts 158°
2026-05-04 07:41 39.27050 -106.89150 8268 ft 147 kts 158°
2026-05-04 07:41 39.26091 -106.88680 8129 ft 149 kts 158°
2026-05-04 07:41 39.25124 -106.88219 7989 ft 145 kts 158°
2026-05-04 07:42 39.24177 -106.87774 7823 ft 145 kts 159°
2026-05-04 07:42 39.23235 -106.87328 7719 ft 143 kts 158°
2026-05-04 07:42 39.22450 -106.86951 7751 ft 82 kts 159°
2026-05-04 07:42 39.22124 -106.86795 7776 ft 38 kts 159°
2026-05-04 07:43 39.22020 -106.86724 7786 ft 4 kts 101°
2026-05-04 07:43 39.22029 -106.86668 7789 ft 8 kts 71°
2026-05-04 07:43 39.22035 -106.86634 7790 ft 0 kts 112°
2026-05-04 07:43 39.22028 -106.86627 7791 ft 5 kts 143°
2026-05-04 07:44 39.21992 -106.86607 7794 ft 3 kts 160°
2026-05-04 07:44 39.21976 -106.86578 7797 ft 2 kts 95°
2026-05-04 07:44 39.21973 -106.86554 7798 ft 3 kts 102°
2026-05-04 07:44 39.21971 -106.86544 7799 ft 1 kts 101°
2026-05-04 07:45 39.21969 -106.86533 7800 ft 0 kts 102°
2026-05-04 07:45 39.21969 -106.86531 7800 ft 0 kts 102°